| time (UTC) | temp F | wind direction | speed knots | gust knots | rain 1hr in | rain 24hr in | rain mn in | humidity % | barometer mb |
| 20260905034457 | 73 | 140 | 0.9 | 1.7 | 0.00 | 0.00 | 0.00 | 81 | 1015.4 |
| 20260905033956 | 73 | 143 | 0.9 | 1.7 | 0.00 | 0.00 | 0.00 | 81 | 1015.1 |
| 20260905033451 | 73 | 48 | 1.7 | 4.3 | 0.00 | 0.00 | 0.00 | 81 | 1015.4 |
| 20260905032946 | 73 | 130 | 1.7 | 1.7 | 0.00 | 0.00 | 0.00 | 80 | 1015.3 |
| 20260905032441 | 73 | 96 | 1.7 | 4.3 | 0.00 | 0.00 | 0.00 | 80 | 1015.3 |
| 20260905031936 | 74 | 98 | 1.7 | 1.7 | 0.00 | 0.00 | 0.00 | 80 | 1015.2 |
| 20260905031432 | 74 | 123 | 1.7 | 1.7 | 0.00 | 0.00 | 0.00 | 79 | 1015.2 |
| 20260905030927 | 74 | 155 | 1.7 | 1.7 | 0.00 | 0.00 | 0.00 | 79 | 1015.1 |
| 20260905030422 | 74 | 64 | 1.7 | 1.7 | 0.00 | 0.00 | 0.00 | 78 | 1015.1 |
| 20260905025921 | 75 | 209 | 1.7 | 1.7 | 0.00 | 0.00 | 0.00 | 78 | 1015.0 |
| 20260905025416 | 75 | 155 | 1.7 | 1.7 | 0.00 | 0.00 | 0.00 | 78 | 1015.1 |
| 20260905024913 | 75 | 323 | 4.3 | 7.8 | 0.00 | 0.00 | 0.00 | 77 | 1015.0 |
| 20260905024408 | 75 | 181 | 2.6 | 2.6 | 0.00 | 0.00 | 0.00 | 77 | 1014.8 |
| 20260905023904 | 75 | 301 | 2.6 | 4.3 | 0.00 | 0.00 | 0.00 | 76 | 1014.9 |
| 20260905023359 | 76 | 108 | 1.7 | 1.7 | 0.00 | 0.00 | 0.00 | 76 | 1014.8 |
| 20260905022857 | 76 | 153 | 0.9 | 1.7 | 0.00 | 0.00 | 0.00 | 75 | 1014.7 |
| 20260905022354 | 77 | 32 | 2.6 | 2.6 | 0.00 | 0.00 | 0.00 | 75 | 1014.7 |
| 20260905021853 | 77 | 102 | 1.7 | 1.7 | 0.00 | 0.00 | 0.00 | 74 | 1014.6 |
| 20260905021348 | 77 | 130 | 1.7 | 1.7 | 0.00 | 0.00 | 0.00 | 74 | 1014.4 |
| 20260905020843 | 78 | 357 | 5.2 | 7.8 | 0.00 | 0.00 | 0.00 | 74 | 1014.5 |
| 20260905020333 | 78 | 312 | 3.5 | 4.3 | 0.00 | 0.00 | 0.00 | 73 | 1014.5 |
| 20260905015832 | 78 | 97 | 1.7 | 2.6 | 0.00 | 0.00 | 0.00 | 73 | 1014.4 |
| 20260905015331 | 79 | 121 | 0.0 | 1.7 | 0.00 | 0.00 | 0.00 | 73 | 1014.7 |
| 20260905014830 | 79 | 107 | 0.9 | 1.7 | 0.00 | 0.00 | 0.00 | 73 | 1014.2 |
| 20260905014326 | 79 | 99 | 1.7 | 1.7 | 0.00 | 0.00 | 0.00 | 73 | 1014.1 |
| 20260905013821 | 79 | 166 | 0.0 | 0.0 | 0.00 | 0.00 | 0.00 | 74 | 1014.2 |
| 20260905013312 | 79 | 109 | 0.0 | 1.7 | 0.00 | 0.00 | 0.00 | 74 | 1014.1 |
| 20260905012807 | 79 | 159 | 0.0 | 0.0 | 0.00 | 0.00 | 0.00 | 73 | 1014.1 |
| 20260905012306 | 79 | 163 | 0.0 | 0.0 | 0.00 | 0.00 | 0.00 | 73 | 1014.0 |
| 20260905011759 | 80 | 158 | 0.0 | 0.0 | 0.00 | 0.00 | 0.00 | 72 | 1014.0 |
| 20260905011254 | 80 | 162 | 0.0 | 1.7 | 0.00 | 0.00 | 0.00 | 72 | 1014.0 |
| 20260905010749 | 80 | 119 | 0.0 | 1.7 | 0.00 | 0.00 | 0.00 | 71 | 1014.0 |
| 20260905010245 | 80 | 125 | 0.0 | 1.7 | 0.00 | 0.00 | 0.00 | 71 | 1013.9 |
| 20260905005741 | 80 | 145 | 0.0 | 1.7 | 0.00 | 0.00 | 0.00 | 71 | 1013.9 |
| 20260905005236 | 81 | 164 | 0.0 | 0.0 | 0.00 | 0.00 | 0.00 | 71 | 1013.6 |
| 20260905004736 | 81 | 158 | 0.0 | 1.7 | 0.00 | 0.00 | 0.00 | 70 | 1013.8 |
| 20260905004231 | 81 | 103 | 1.7 | 2.6 | 0.00 | 0.00 | 0.00 | 70 | 1013.6 |
| 20260905003731 | 81 | 133 | 0.9 | 1.7 | 0.00 | 0.00 | 0.00 | 70 | 1013.9 |
| 20260905003227 | 82 | 149 | 0.9 | 1.7 | 0.00 | 0.00 | 0.00 | 69 | 1013.7 |
| 20260905002722 | 82 | 169 | 0.9 | 1.7 | 0.00 | 0.00 | 0.00 | 69 | 1013.6 |
| 20260905002222 | 82 | 161 | 0.0 | 0.0 | 0.00 | 0.00 | 0.00 | 69 | 1013.6 |
| 20260905001717 | 82 | 106 | 1.7 | 1.7 | 0.00 | 0.00 | 0.00 | 68 | 1013.8 |
| 20260905001216 | 82 | 130 | 3.5 | 4.3 | 0.00 | 0.00 | 0.00 | 68 | 1013.7 |
| 20260905000712 | 83 | 149 | 0.0 | 1.7 | 0.00 | 0.00 | 0.00 | 67 | 1013.6 |
| 20260905000208 | 83 | 146 | 0.0 | 1.7 | 0.00 | 0.00 | 0.00 | 67 | 1013.6 |
| 20260904235707 | 83 | 136 | 0.9 | 1.7 | 0.00 | 0.00 | 0.00 | 67 | 1013.6 |
| 20260904235202 | 83 | 168 | 1.7 | 1.7 | 0.00 | 0.00 | 0.00 | 67 | 1013.6 |
| 20260904234657 | 83 | 173 | 1.7 | 1.7 | 0.00 | 0.00 | 0.00 | 66 | 1013.6 |
| 20260904234153 | 83 | 158 | 0.0 | 0.0 | 0.00 | 0.00 | 0.00 | 66 | 1013.4 |
| 20260904233648 | 84 | 133 | 1.7 | 1.7 | 0.00 | 0.00 | 0.00 | 65 | 1013.5 |
| 20260904233144 | 84 | 11 | 2.6 | 2.6 | 0.00 | 0.00 | 0.00 | 65 | 1013.4 |
| 20260904232640 | 84 | 138 | 1.7 | 2.6 | 0.00 | 0.00 | 0.00 | 65 | 1013.4 |
| 20260904232136 | 84 | 92 | 0.9 | 1.7 | 0.00 | 0.00 | 0.00 | 65 | 1013.6 |
| 20260904231632 | 84 | 155 | 0.0 | 0.0 | 0.00 | 0.00 | 0.00 | 65 | 1013.3 |
| 20260904231127 | 84 | 165 | 0.0 | 1.7 | 0.00 | 0.00 | 0.00 | 65 | 1013.3 |
| 20260904230626 | 84 | 77 | 0.9 | 2.6 | 0.00 | 0.00 | 0.00 | 65 | 1013.4 |
| 20260904230122 | 85 | 314 | 4.3 | 6.1 | 0.00 | 0.00 | 0.00 | 65 | 1013.3 |
| 20260904225619 | 85 | 148 | 3.5 | 4.3 | 0.00 | 0.00 | 0.00 | 65 | 1013.2 |
| 20260904225114 | 85 | 210 | 1.7 | 2.6 | 0.00 | 0.00 | 0.00 | 66 | 1013.2 |
| 20260904224609 | 85 | 170 | 0.9 | 1.7 | 0.00 | 0.00 | 0.00 | 65 | 1013.3 |
| 20260904224104 | 86 | 325 | 2.6 | 4.3 | 0.00 | 0.00 | 0.00 | 66 | 1013.3 |
| 20260904223603 | 86 | 172 | 0.0 | 1.7 | 0.00 | 0.00 | 0.00 | 66 | 1012.8 |
| 20260904223058 | 86 | 68 | 1.7 | 1.7 | 0.00 | 0.00 | 0.00 | 65 | 1013.1 |
| 20260904222554 | 87 | 283 | 0.0 | 0.0 | 0.00 | 0.00 | 0.00 | 64 | 1012.9 |
| 20260904222049 | 87 | 211 | 0.9 | 1.7 | 0.00 | 0.00 | 0.00 | 64 | 1012.8 |
| 20260904221544 | 87 | 342 | 3.5 | 4.3 | 0.00 | 0.00 | 0.00 | 63 | 1012.9 |
| 20260904221039 | 88 | 236 | 1.7 | 2.6 | 0.00 | 0.00 | 0.00 | 62 | 1013.1 |
| 20260904220538 | 87 | 149 | 0.0 | 0.0 | 0.00 | 0.00 | 0.00 | 63 | 1012.7 |
| 20260904220034 | 88 | 186 | 1.7 | 2.6 | 0.00 | 0.00 | 0.00 | 62 | 1012.6 |
| 20260904215533 | 88 | 252 | 3.5 | 4.3 | 0.00 | 0.00 | 0.00 | 63 | 1012.6 |
| 20260904215030 | 88 | 142 | 3.5 | 4.3 | 0.00 | 0.00 | 0.00 | 63 | 1012.7 |
| 20260904214525 | 88 | 343 | 1.7 | 2.6 | 0.00 | 0.00 | 0.00 | 63 | 1012.5 |
| 20260904214020 | 88 | 327 | 1.7 | 2.6 | 0.00 | 0.00 | 0.00 | 62 | 1012.5 |
| 20260904213518 | 88 | 351 | 2.6 | 4.3 | 0.00 | 0.00 | 0.00 | 63 | 1012.5 |
| 20260904213015 | 88 | 193 | 2.6 | 2.6 | 0.00 | 0.00 | 0.00 | 63 | 1012.7 |
| 20260904212514 | 87 | 80 | 2.6 | 2.6 | 0.00 | 0.00 | 0.00 | 64 | 1012.6 |
| 20260904212009 | 88 | 136 | 0.0 | 1.7 | 0.00 | 0.00 | 0.00 | 64 | 1012.7 |
| 20260904211503 | 88 | 281 | 1.7 | 2.6 | 0.00 | 0.00 | 0.00 | 64 | 1012.6 |
| 20260904210959 | 87 | 338 | 2.6 | 2.6 | 0.00 | 0.00 | 0.00 | 64 | 1012.8 |
| 20260904210458 | 87 | 299 | 2.6 | 4.3 | 0.00 | 0.00 | 0.00 | 65 | 1012.8 |
| 20260904205954 | 87 | 245 | 1.7 | 1.7 | 0.00 | 0.00 | 0.00 | 65 | 1012.6 |
| 20260904205449 | 87 | 19 | 1.7 | 2.6 | 0.00 | 0.00 | 0.00 | 66 | 1012.8 |
| 20260904204947 | 87 | 176 | 0.9 | 1.7 | 0.00 | 0.00 | 0.00 | 65 | 1012.7 |
| 20260904204442 | 88 | 111 | 2.6 | 2.6 | 0.00 | 0.00 | 0.00 | 64 | 1012.7 |
| 20260904203938 | 88 | 357 | 4.3 | 6.1 | 0.00 | 0.00 | 0.00 | 64 | 1012.6 |
| 20260904203434 | 88 | 120 | 1.7 | 2.6 | 0.00 | 0.00 | 0.00 | 63 | 1012.7 |
| 20260904202930 | 87 | 121 | 0.9 | 1.7 | 0.00 | 0.00 | 0.00 | 66 | 1012.6 |
| 20260904202426 | 87 | 319 | 5.2 | 6.1 | 0.00 | 0.00 | 0.00 | 64 | 1012.6 |
| 20260904201922 | 87 | 141 | 1.7 | 2.6 | 0.00 | 0.00 | 0.00 | 65 | 1012.7 |
| 20260904201416 | 87 | 21 | 1.7 | 2.6 | 0.00 | 0.00 | 0.00 | 65 | 1012.7 |
| 20260904200912 | 87 | 85 | 1.7 | 2.6 | 0.00 | 0.00 | 0.00 | 66 | 1012.6 |
| 20260904200410 | 87 | 24 | 3.5 | 6.1 | 0.00 | 0.00 | 0.00 | 65 | 1012.9 |
| 20260904195906 | 86 | 148 | 1.7 | 1.7 | 0.00 | 0.00 | 0.00 | 67 | 1012.8 |
| 20260904195403 | 86 | 2 | 1.7 | 2.6 | 0.00 | 0.00 | 0.00 | 67 | 1012.9 |
| 20260904194858 | 86 | 164 | 1.7 | 1.7 | 0.00 | 0.00 | 0.00 | 67 | 1012.9 |
| 20260904194358 | 86 | 18 | 3.5 | 6.1 | 0.00 | 0.00 | 0.00 | 67 | 1012.9 |
| 20260904193853 | 85 | 350 | 3.5 | 4.3 | 0.00 | 0.00 | 0.00 | 70 | 1012.7 |
| 20260904193348 | 85 | 354 | 1.7 | 4.3 | 0.00 | 0.00 | 0.00 | 69 | 1012.8 |
| 20260904192843 | 85 | 188 | 0.9 | 1.7 | 0.00 | 0.00 | 0.00 | 69 | 1012.8 |
| 20260904192339 | 83 | 176 | 1.7 | 2.6 | 0.00 | 0.00 | 0.00 | 72 | 1012.8 |
| 20260904191835 | 83 | 350 | 2.6 | 2.6 | 0.00 | 0.00 | 0.00 | 74 | 1012.9 |
| 20260904191332 | 84 | 344 | 2.6 | 4.3 | 0.00 | 0.00 | 0.00 | 72 | 1013.1 |
| 20260904190828 | 84 | 334 | 3.5 | 6.1 | 0.00 | 0.00 | 0.00 | 72 | 1013.1 |
| 20260904190324 | 85 | 184 | 3.5 | 4.3 | 0.00 | 0.00 | 0.00 | 71 | 1013.3 |
| 20260904185820 | 84 | 23 | 2.6 | 2.6 | 0.00 | 0.00 | 0.00 | 72 | 1013.2 |
| 20260904185315 | 84 | 263 | 4.3 | 6.1 | 0.00 | 0.00 | 0.00 | 72 | 1013.1 |
| 20260904184814 | 83 | 315 | 2.6 | 2.6 | 0.00 | 0.00 | 0.00 | 73 | 1013.1 |
| 20260904184309 | 82 | 296 | 1.7 | 2.6 | 0.00 | 0.00 | 0.00 | 75 | 1012.9 |
| 20260904183805 | 83 | 335 | 4.3 | 7.8 | 0.00 | 0.00 | 0.00 | 75 | 1013.1 |
| 20260904183300 | 82 | 82 | 1.7 | 2.6 | 0.00 | 0.00 | 0.00 | 75 | 1012.9 |
| 20260904182755 | 82 | 354 | 3.5 | 4.3 | 0.00 | 0.00 | 0.00 | 75 | 1013.1 |
| 20260904182250 | 82 | 236 | 1.7 | 1.7 | 0.00 | 0.00 | 0.00 | 76 | 1012.9 |
| 20260904181746 | 81 | 335 | 2.6 | 2.6 | 0.00 | 0.00 | 0.00 | 78 | 1013.1 |
| 20260904181246 | 81 | 10 | 5.2 | 8.7 | 0.00 | 0.00 | 0.00 | 78 | 1013.2 |
| 20260904180741 | 81 | 343 | 1.7 | 2.6 | 0.00 | 0.00 | 0.00 | 78 | 1013.2 |
| 20260904180236 | 80 | 244 | 2.6 | 2.6 | 0.00 | 0.00 | 0.00 | 79 | 1012.9 |
| 20260904175735 | 81 | 2 | 5.2 | 6.1 | 0.00 | 0.00 | 0.00 | 78 | 1013.1 |
| 20260904175233 | 81 | 294 | 3.5 | 4.3 | 0.00 | 0.00 | 0.00 | 79 | 1012.8 |
| 20260904174729 | 81 | 356 | 3.5 | 4.3 | 0.00 | 0.00 | 0.00 | 78 | 1012.8 |
| 20260904174225 | 82 | 171 | 0.9 | 1.7 | 0.00 | 0.00 | 0.00 | 78 | 1012.8 |
| 20260904173720 | 82 | 32 | 5.2 | 7.8 | 0.00 | 0.00 | 0.00 | 77 | 1012.9 |
| 20260904173215 | 82 | 111 | 1.7 | 2.6 | 0.00 | 0.00 | 0.00 | 77 | 1012.9 |
| 20260904172712 | 84 | 249 | 3.5 | 6.1 | 0.00 | 0.00 | 0.00 | 75 | 1012.6 |
| 20260904172210 | 84 | 18 | 1.7 | 2.6 | 0.00 | 0.00 | 0.00 | 75 | 1012.5 |
| 20260904171706 | 83 | 359 | 2.6 | 2.6 | 0.00 | 0.00 | 0.00 | 75 | 1012.5 |
| 20260904171201 | 83 | 298 | 2.6 | 2.6 | 0.00 | 0.00 | 0.00 | 75 | 1012.4 |
| 20260904170657 | 83 | 107 | 0.9 | 1.7 | 0.00 | 0.00 | 0.00 | 77 | 1012.6 |
| 20260904170153 | 82 | 77 | 0.9 | 2.6 | 0.00 | 0.00 | 0.00 | 79 | 1012.6 |
| 20260904165651 | 81 | 113 | 1.7 | 2.6 | 0.00 | 0.00 | 0.00 | 79 | 1012.7 |
| 20260904165151 | 81 | 300 | 1.7 | 2.6 | 0.00 | 0.00 | 0.00 | 79 | 1012.7 |
| 20260904164646 | 82 | 131 | 2.6 | 4.3 | 0.00 | 0.00 | 0.00 | 77 | 1012.5 |
| 20260904164141 | 81 | 168 | 1.7 | 2.6 | 0.00 | 0.00 | 0.00 | 80 | 1012.5 |
| 20260904163637 | 81 | 33 | 3.5 | 4.3 | 0.00 | 0.00 | 0.00 | 80 | 1012.5 |
| 20260904163132 | 81 | 14 | 3.5 | 6.1 | 0.00 | 0.00 | 0.00 | 79 | 1012.3 |
| 20260904162631 | 81 | 173 | 2.6 | 2.6 | 0.00 | 0.00 | 0.00 | 81 | 1012.4 |
| 20260904162126 | 82 | 27 | 4.3 | 6.1 | 0.00 | 0.00 | 0.00 | 78 | 1012.4 |
| 20260904161622 | 82 | 339 | 6.1 | 8.7 | 0.00 | 0.00 | 0.00 | 78 | 1012.4 |
| 20260904161117 | 83 | 15 | 5.2 | 6.1 | 0.00 | 0.00 | 0.00 | 77 | 1012.1 |
| 20260904160612 | 83 | 170 | 0.0 | 1.7 | 0.00 | 0.00 | 0.00 | 79 | 1012.2 |
| 20260904160108 | 83 | 245 | 3.5 | 4.3 | 0.00 | 0.00 | 0.00 | 78 | 1012.1 |
| 20260904155608 | 84 | 35 | 4.3 | 6.1 | 0.00 | 0.00 | 0.00 | 76 | 1012.0 |
| 20260904155102 | 84 | 309 | 3.5 | 4.3 | 0.00 | 0.00 | 0.00 | 77 | 1012.1 |
| 20260904154556 | 84 | 130 | 0.9 | 1.7 | 0.00 | 0.00 | 0.00 | 77 | 1011.9 |
| 20260904154051 | 84 | 350 | 3.5 | 4.3 | 0.00 | 0.00 | 0.00 | 77 | 1011.9 |
| 20260904153550 | 85 | 38 | 4.3 | 6.1 | 0.00 | 0.00 | 0.00 | 75 | 1011.8 |
| 20260904153046 | 85 | 89 | 1.7 | 2.6 | 0.00 | 0.00 | 0.00 | 74 | 1011.6 |
| 20260904152542 | 85 | 155 | 1.7 | 2.6 | 0.00 | 0.00 | 0.00 | 75 | 1011.7 |
| 20260904152038 | 84 | 161 | 0.9 | 1.7 | 0.00 | 0.00 | 0.00 | 77 | 1011.4 |
| 20260904151538 | 83 | 164 | 0.0 | 0.0 | 0.00 | 0.00 | 0.00 | 78 | 1011.4 |
| 20260904151037 | 83 | 147 | 1.7 | 2.6 | 0.00 | 0.00 | 0.00 | 78 | 1011.5 |
| 20260904150532 | 83 | 83 | 0.9 | 1.7 | 0.00 | 0.00 | 0.00 | 78 | 1011.2 |
| 20260904150027 | 82 | 174 | 0.0 | 0.0 | 0.00 | 0.00 | 0.00 | 80 | 1011.5 |
| 20260904145526 | 82 | 349 | 1.7 | 2.6 | 0.00 | 0.00 | 0.00 | 80 | 1011.2 |
| 20260904145022 | 81 | 176 | 1.7 | 2.6 | 0.00 | 0.00 | 0.00 | 82 | 1011.2 |
| 20260904144518 | 80 | 151 | 0.0 | 0.0 | 0.00 | 0.00 | 0.00 | 84 | 1011.1 |
| 20260904144014 | 79 | 146 | 1.7 | 1.7 | 0.00 | 0.00 | 0.00 | 85 | 1011.2 |
| 20260904143509 | 79 | 338 | 1.7 | 2.6 | 0.00 | 0.00 | 0.00 | 86 | 1011.2 |
| 20260904143006 | 78 | 141 | 0.0 | 1.7 | 0.00 | 0.00 | 0.00 | 87 | 1011.3 |
| 20260904142502 | 78 | 152 | 0.0 | 0.0 | 0.00 | 0.00 | 0.00 | 87 | 1011.3 |
| 20260904142001 | 78 | 162 | 0.0 | 0.0 | 0.00 | 0.00 | 0.00 | 88 | 1011.3 |
| 20260904141456 | 78 | 122 | 0.9 | 1.7 | 0.00 | 0.00 | 0.00 | 88 | 1011.2 |
| 20260904140953 | 77 | 183 | 0.9 | 1.7 | 0.00 | 0.00 | 0.00 | 89 | 1011.1 |
| 20260904140452 | 77 | 122 | 0.9 | 1.7 | 0.00 | 0.00 | 0.00 | 89 | 1011.2 |
| 20260904135952 | 77 | 122 | 1.7 | 1.7 | 0.00 | 0.00 | 0.00 | 91 | 1011.2 |
| 20260904135452 | 76 | 140 | 1.7 | 1.7 | 0.00 | 0.00 | 0.00 | 91 | 1011.1 |
| 20260904134948 | 76 | 139 | 0.9 | 1.7 | 0.00 | 0.00 | 0.00 | 93 | 1011.3 |
| 20260904134448 | 76 | 172 | 0.0 | 0.0 | 0.00 | 0.00 | 0.00 | 94 | 1011.4 |
| 20260904133943 | 75 | 137 | 0.0 | 0.0 | 0.00 | 0.00 | 0.00 | 94 | 1011.3 |
| 20260904133437 | 75 | 152 | 0.0 | 0.0 | 0.00 | 0.00 | 0.00 | 95 | 1011.4 |
| 20260904132933 | 75 | 143 | 0.0 | 1.7 | 0.00 | 0.00 | 0.00 | 96 | 1011.3 |
| 20260904132428 | 74 | 155 | 0.0 | 1.7 | 0.00 | 0.00 | 0.00 | 97 | 1011.1 |
| 20260904131928 | 74 | 155 | 0.0 | 1.7 | 0.00 | 0.00 | 0.00 | 97 | 1011.3 |
| 20260904131423 | 74 | 140 | 1.7 | 1.7 | 0.00 | 0.00 | 0.00 | 97 | 1011.2 |
| 20260904130919 | 74 | 315 | 0.0 | 1.7 | 0.00 | 0.00 | 0.00 | 98 | 1011.1 |
| 20260904130418 | 73 | 250 | 0.0 | 1.7 | 0.00 | 0.00 | 0.00 | 98 | 1011.0 |
| 20260904125912 | 73 | 159 | 0.0 | 0.0 | 0.00 | 0.00 | 0.00 | 98 | 1011.0 |
| 20260904125410 | 73 | 161 | 0.0 | 0.0 | 0.00 | 0.00 | 0.00 | 98 | 1011.1 |
| 20260904124908 | 73 | 137 | 0.0 | 0.0 | 0.00 | 0.00 | 0.00 | 98 | 1010.9 |
| 20260904124405 | 73 | 161 | 0.0 | 0.0 | 0.00 | 0.00 | 0.00 | 98 | 1010.8 |
| 20260904123900 | 72 | 161 | 0.0 | 1.7 | 0.00 | 0.00 | 0.00 | 98 | 1010.6 |
| 20260904123355 | 72 | 161 | 0.0 | 0.0 | 0.00 | 0.00 | 0.00 | 98 | 1010.7 |
| 20260904122851 | 72 | 161 | 0.0 | 0.0 | 0.00 | 0.00 | 0.00 | 98 | 1010.6 |
| 20260904122350 | 72 | 160 | 0.0 | 0.0 | 0.00 | 0.00 | 0.00 | 98 | 1010.8 |
| 20260904121844 | 72 | 160 | 0.0 | 0.0 | 0.00 | 0.00 | 0.00 | 98 | 1010.6 |
| 20260904121341 | 71 | 160 | 0.0 | 0.0 | 0.00 | 0.00 | 0.00 | 97 | 1010.6 |
| 20260904120837 | 71 | 160 | 0.0 | 0.0 | 0.00 | 0.00 | 0.00 | 97 | 1010.5 |
| 20260904120333 | 71 | 160 | 0.0 | 0.0 | 0.00 | 0.00 | 0.00 | 97 | 1010.5 |
| 20260904115828 | 71 | 158 | 0.0 | 0.0 | 0.00 | 0.00 | 0.00 | 97 | 1010.6 |
| 20260904115323 | 71 | 168 | 0.0 | 0.0 | 0.00 | 0.00 | 0.00 | 97 | 1010.4 |
| 20260904114823 | 71 | 144 | 0.0 | 0.0 | 0.00 | 0.00 | 0.00 | 97 | 1010.4 |
| 20260904114318 | 71 | 167 | 0.0 | 0.0 | 0.00 | 0.00 | 0.00 | 97 | 1010.5 |
| 20260904113813 | 71 | 163 | 0.0 | 0.0 | 0.00 | 0.00 | 0.00 | 97 | 1010.1 |
| 20260904113312 | 71 | 167 | 0.0 | 0.0 | 0.00 | 0.00 | 0.00 | 97 | 1010.2 |
| 20260904112807 | 71 | 162 | 0.0 | 0.0 | 0.00 | 0.00 | 0.00 | 97 | 1010.1 |
| 20260904112305 | 72 | 157 | 0.0 | 0.0 | 0.00 | 0.00 | 0.00 | 97 | 1010.3 |
| 20260904111758 | 72 | 148 | 0.0 | 0.0 | 0.00 | 0.00 | 0.00 | 97 | 1010.1 |
| 20260904111254 | 72 | 171 | 0.0 | 0.0 | 0.00 | 0.00 | 0.00 | 97 | 1010.2 |
| 20260904110749 | 72 | 162 | 0.0 | 0.0 | 0.00 | 0.00 | 0.00 | 97 | 1010.3 |
| 20260904110248 | 72 | 144 | 1.7 | 1.7 | 0.00 | 0.00 | 0.00 | 97 | 1010.0 |
| 20260904105743 | 72 | 173 | 0.0 | 1.7 | 0.00 | 0.00 | 0.00 | 97 | 1010.1 |
| 20260904105238 | 72 | 154 | 0.0 | 0.0 | 0.00 | 0.00 | 0.00 | 97 | 1010.2 |
| 20260904104733 | 72 | 175 | 0.0 | 0.0 | 0.00 | 0.00 | 0.00 | 97 | 1009.9 |
| 20260904104229 | 72 | 175 | 0.0 | 0.0 | 0.00 | 0.00 | 0.00 | 97 | 1010.2 |
| 20260904103726 | 72 | 176 | 0.0 | 0.0 | 0.00 | 0.00 | 0.00 | 97 | 1010.2 |
| 20260904103220 | 72 | 169 | 0.0 | 1.7 | 0.00 | 0.00 | 0.00 | 97 | 1010.1 |
| 20260904102716 | 72 | 150 | 0.0 | 1.7 | 0.00 | 0.00 | 0.00 | 97 | 1010.1 |
| 20260904102211 | 72 | 174 | 0.0 | 0.0 | 0.00 | 0.00 | 0.00 | 97 | 1010.2 |
| 20260904101708 | 72 | 156 | 0.0 | 0.0 | 0.00 | 0.00 | 0.00 | 97 | 1010.4 |
| 20260904101203 | 72 | 161 | 0.0 | 0.0 | 0.00 | 0.00 | 0.00 | 97 | 1010.3 |
| 20260904100659 | 72 | 161 | 0.0 | 0.0 | 0.00 | 0.00 | 0.00 | 97 | 1010.0 |
| 20260904100155 | 72 | 161 | 0.0 | 0.0 | 0.00 | 0.00 | 0.00 | 97 | 1010.3 |
| 20260904095649 | 72 | 161 | 0.0 | 0.0 | 0.00 | 0.00 | 0.00 | 97 | 1010.1 |
| 20260904095148 | 71 | 161 | 0.0 | 0.0 | 0.00 | 0.00 | 0.00 | 97 | 1010.1 |
| 20260904094644 | 71 | 161 | 0.0 | 0.0 | 0.00 | 0.00 | 0.00 | 97 | 1010.0 |
| 20260904094138 | 71 | 161 | 0.0 | 0.0 | 0.00 | 0.00 | 0.00 | 96 | 1009.9 |
| 20260904093636 | 72 | 161 | 0.0 | 0.0 | 0.00 | 0.00 | 0.00 | 96 | 1010.0 |
| 20260904093135 | 72 | 161 | 0.0 | 0.0 | 0.00 | 0.00 | 0.00 | 96 | 1009.8 |
| 20260904092631 | 71 | 161 | 0.0 | 0.0 | 0.00 | 0.00 | 0.00 | 96 | 1009.9 |
| 20260904092127 | 72 | 161 | 0.0 | 0.0 | 0.00 | 0.00 | 0.00 | 96 | 1009.9 |
| 20260904091623 | 72 | 161 | 0.0 | 0.0 | 0.00 | 0.00 | 0.00 | 96 | 1009.7 |
| 20260904091123 | 72 | 161 | 0.0 | 0.0 | 0.00 | 0.00 | 0.00 | 96 | 1009.8 |
| 20260904090618 | 72 | 160 | 0.0 | 0.0 | 0.00 | 0.00 | 0.00 | 96 | 1009.6 |
| 20260904090115 | 72 | 161 | 0.0 | 0.0 | 0.00 | 0.00 | 0.00 | 96 | 1009.8 |
| 20260904085614 | 72 | 161 | 0.0 | 0.0 | 0.00 | 0.00 | 0.00 | 96 | 1009.6 |
| 20260904085114 | 72 | 161 | 0.0 | 0.0 | 0.00 | 0.00 | 0.00 | 96 | 1009.4 |
| 20260904084610 | 72 | 160 | 0.0 | 0.0 | 0.00 | 0.00 | 0.00 | 96 | 1009.5 |
| 20260904084106 | 72 | 161 | 0.0 | 0.0 | 0.00 | 0.00 | 0.00 | 96 | 1009.7 |
| 20260904083602 | 72 | 160 | 0.0 | 0.0 | 0.00 | 0.00 | 0.00 | 96 | 1009.4 |
| 20260904083057 | 72 | 161 | 0.0 | 0.0 | 0.00 | 0.00 | 0.00 | 96 | 1009.6 |
| 20260904082552 | 72 | 161 | 0.0 | 0.0 | 0.00 | 0.00 | 0.00 | 96 | 1009.5 |
| 20260904082048 | 73 | 161 | 0.0 | 0.0 | 0.00 | 0.00 | 0.00 | 95 | 1009.6 |
| 20260904081543 | 72 | 160 | 0.0 | 0.0 | 0.00 | 0.00 | 0.00 | 95 | 1009.6 |
| 20260904081038 | 72 | 161 | 0.0 | 0.0 | 0.00 | 0.00 | 0.00 | 95 | 1009.6 |
| 20260904080534 | 72 | 161 | 0.0 | 0.0 | 0.00 | 0.00 | 0.00 | 95 | 1009.6 |
| 20260904080030 | 73 | 161 | 0.0 | 0.0 | 0.00 | 0.00 | 0.00 | 95 | 1009.5 |
| 20260904075526 | 73 | 161 | 0.0 | 0.0 | 0.00 | 0.00 | 0.00 | 95 | 1009.7 |
| 20260904075020 | 73 | 161 | 0.0 | 0.0 | 0.00 | 0.00 | 0.00 | 95 | 1009.3 |
| 20260904074515 | 73 | 161 | 0.0 | 0.0 | 0.00 | 0.00 | 0.00 | 95 | 1009.4 |
| 20260904074014 | 73 | 161 | 0.0 | 0.0 | 0.00 | 0.00 | 0.00 | 95 | 1009.4 |
| 20260904073510 | 73 | 161 | 0.0 | 0.0 | 0.00 | 0.00 | 0.00 | 95 | 1009.5 |
| 20260904073006 | 73 | 161 | 0.0 | 0.0 | 0.00 | 0.00 | 0.00 | 94 | 1009.6 |
| 20260904072502 | 73 | 161 | 0.0 | 0.0 | 0.00 | 0.00 | 0.00 | 94 | 1009.6 |
| 20260904072001 | 73 | 161 | 0.0 | 0.0 | 0.00 | 0.00 | 0.00 | 94 | 1009.5 |
| 20260904071457 | 73 | 161 | 0.0 | 0.0 | 0.00 | 0.00 | 0.00 | 94 | 1009.4 |
| 20260904070952 | 73 | 161 | 0.0 | 0.0 | 0.00 | 0.00 | 0.00 | 94 | 1009.9 |
| 20260904070450 | 73 | 160 | 0.0 | 0.0 | 0.00 | 0.00 | 0.00 | 94 | 1009.7 |
| 20260904065945 | 73 | 160 | 0.0 | 0.0 | 0.00 | 0.00 | 0.00 | 93 | 1009.3 |
| 20260904065441 | 74 | 160 | 0.0 | 0.0 | 0.00 | 0.00 | 0.00 | 93 | 1009.8 |
| 20260904064936 | 74 | 161 | 0.0 | 0.0 | 0.00 | 0.00 | 0.00 | 93 | 1009.8 |
| 20260904064432 | 74 | 160 | 0.0 | 0.0 | 0.00 | 0.00 | 0.00 | 93 | 1009.8 |
| 20260904063927 | 74 | 160 | 0.0 | 0.0 | 0.00 | 0.00 | 0.00 | 93 | 1009.6 |
| 20260904063424 | 74 | 160 | 0.0 | 0.0 | 0.00 | 0.00 | 0.00 | 93 | 1009.7 |
| 20260904062918 | 74 | 160 | 0.0 | 0.0 | 0.00 | 0.00 | 0.00 | 93 | 1009.9 |
| 20260904062414 | 74 | 161 | 0.0 | 0.0 | 0.00 | 0.00 | 0.00 | 92 | 1009.8 |
| 20260904061910 | 74 | 161 | 0.0 | 0.0 | 0.00 | 0.00 | 0.00 | 92 | 1009.7 |
| 20260904061406 | 74 | 161 | 0.0 | 0.0 | 0.00 | 0.00 | 0.00 | 92 | 1009.6 |
| 20260904060902 | 74 | 160 | 0.0 | 0.0 | 0.00 | 0.00 | 0.00 | 92 | 1009.7 |
| 20260904060358 | 75 | 160 | 0.0 | 0.0 | 0.00 | 0.00 | 0.00 | 92 | 1009.6 |
| 20260904055853 | 74 | 160 | 0.0 | 0.0 | 0.00 | 0.00 | 0.00 | 92 | 1009.7 |
| 20260904055348 | 75 | 160 | 0.0 | 0.0 | 0.00 | 0.00 | 0.00 | 92 | 1009.6 |
| 20260904054844 | 75 | 160 | 0.0 | 0.0 | 0.00 | 0.00 | 0.00 | 91 | 1009.6 |
| 20260904054340 | 75 | 161 | 0.0 | 0.0 | 0.00 | 0.00 | 0.00 | 91 | 1009.7 |
| 20260904053835 | 75 | 161 | 0.0 | 0.0 | 0.00 | 0.00 | 0.00 | 91 | 1009.5 |
| 20260904053334 | 75 | 160 | 0.0 | 0.0 | 0.00 | 0.00 | 0.00 | 91 | 1009.5 |
| 20260904052830 | 75 | 160 | 0.0 | 0.0 | 0.00 | 0.00 | 0.00 | 90 | 1009.7 |
| 20260904052327 | 75 | 160 | 0.0 | 0.0 | 0.00 | 0.00 | 0.00 | 90 | 1009.4 |
| 20260904051823 | 75 | 160 | 0.0 | 0.0 | 0.00 | 0.00 | 0.00 | 90 | 1009.6 |
| 20260904051318 | 76 | 160 | 0.0 | 0.0 | 0.00 | 0.00 | 0.00 | 89 | 1009.7 |
| 20260904050813 | 76 | 160 | 0.0 | 0.0 | 0.00 | 0.00 | 0.00 | 89 | 1009.6 |
| 20260904050311 | 76 | 160 | 0.0 | 0.0 | 0.00 | 0.00 | 0.00 | 89 | 1009.5 |
| 20260904045810 | 76 | 159 | 0.0 | 0.0 | 0.00 | 0.01 | 0.01 | 88 | 1009.6 |
| 20260904045307 | 76 | 159 | 0.0 | 0.0 | 0.00 | 0.01 | 0.01 | 88 | 1009.6 |
| 20260904044759 | 76 | 165 | 0.0 | 0.0 | 0.00 | 0.01 | 0.01 | 88 | 1009.5 |
| 20260904044257 | 76 | 155 | 0.0 | 0.0 | 0.00 | 0.01 | 0.01 | 88 | 1009.5 |
| 20260904043752 | 76 | 154 | 0.0 | 0.0 | 0.00 | 0.01 | 0.01 | 88 | 1009.4 |
| 20260904043248 | 76 | 157 | 0.0 | 0.0 | 0.00 | 0.01 | 0.01 | 88 | 1009.4 |
| 20260904042743 | 76 | 157 | 0.0 | 0.0 | 0.00 | 0.01 | 0.01 | 87 | 1009.4 |
| 20260904042240 | 77 | 156 | 0.0 | 0.0 | 0.00 | 0.01 | 0.01 | 87 | 1009.2 |
| 20260904041739 | 77 | 161 | 0.0 | 0.0 | 0.00 | 0.01 | 0.01 | 86 | 1009.4 |
| 20260904041235 | 77 | 161 | 0.0 | 0.0 | 0.00 | 0.01 | 0.01 | 86 | 1009.2 |
| 20260904040731 | 77 | 165 | 0.0 | 0.0 | 0.00 | 0.01 | 0.01 | 86 | 1009.3 |
| 20260904040226 | 77 | 165 | 0.0 | 0.0 | 0.00 | 0.01 | 0.01 | 85 | 1009.2 |
| 20260904035722 | 77 | 167 | 0.0 | 1.7 | 0.00 | 0.01 | 0.01 | 85 | 1009.0 |
| 20260904035217 | 77 | 157 | 0.0 | 0.0 | 0.00 | 0.01 | 0.01 | 84 | 1009.4 |